Weather History for KDED - November, 2013

Change the Weather History Date:

Wednesday, November 6, 2013

  Actual Average Record
Temperature  
Mean Temperature 70 °F -  
Max Temperature 73 °F 77 °F 82 °F (2014)
Min Temperature 66 °F 53 °F 59 °F (2014)
Cooling Degree Days 4    
Growing Degree Days 20 (Base 50)    
Moisture  
Dew Point 67 °F    
Average Humidity 90    
Maximum Humidity 100    
Minimum Humidity 83    
Precipitation  
Precipitation 0.00 in - - ()
Sea Level Pressure  
Sea Level Pressure 30.09 in    
Wind  
Wind Speed 6 mph (North)    
Max Wind Speed 12 mph    
Max Gust Speed -    
Averages and records for this station are not official NWS values.
T = Trace of Precipitation, MM = Missing Value Source: NWS Daily Summary

Daily Weather History Graph

Daily Weather History Graph

Search for Another Location

Airport or City:

Trip Planner

Search our weather history database for the weather conditions in past years. The results will help you decide how hot, cold, wet, or windy it might be!

Date:

Astronomy

Nov. 06, 2013 Rise Set
Actual Time 6:41 AM EST 5:35 PM EST
Civil Twilight 6:16 AM EST 6:00 PM EST
Nautical Twilight 5:48 AM EST 6:28 PM EST
Astronomical Twilight 5:20 AM EST 6:56 PM EST
Moon 9:49 AM EST (11/6) 8:44 PM EST (11/6)
Length of Visible Light 11h 43m
Length of Day
10h 53m
Waxing Crescent, 13% of the Moon is Illuminated
Nov 6
Waxing Crescent
Nov 10
First Quarter
Nov 17
Full
Nov 25
Last Quarter
Dec 2
New

Hourly Weather History & Observations

Time (EST) Temp. Dew Point Humidity Pressure Visibility Wind Dir Wind Speed Gust Speed Precip Events Conditions
3:15 PM - - N/A% 30.08 in - NE 11.5 mph - N/A   Unknown
3:35 PM 73.4 °F 68.0 °F 83% 30.09 in - North 8.1 mph - N/A   Scattered Clouds
3:55 PM 73.4 °F 68.0 °F 83% 30.09 in - NNE 5.8 mph - N/A   Mostly Cloudy
4:15 PM 73.4 °F 68.0 °F 83% 30.09 in - North 5.8 mph - N/A   Partly Cloudy
4:35 PM 73.4 °F 68.0 °F 83% 30.09 in - North 6.9 mph - N/A   Mostly Cloudy
4:55 PM 71.6 °F 68.0 °F 88% 30.08 in - North 5.8 mph - N/A   Unknown
5:15 PM 71.6 °F 68.0 °F 88% 30.09 in - Calm Calm - N/A   Unknown
5:35 PM 71.6 °F 68.0 °F 88% 30.09 in - North 3.5 mph - N/A   Unknown
5:55 PM 71.6 °F 68.0 °F 88% 30.09 in - NNE 3.5 mph - N/A   Unknown
6:15 PM 71.6 °F 68.0 °F 88% 30.09 in - NNE 3.5 mph - N/A   Unknown
6:35 PM 71.6 °F 66.2 °F 83% 30.09 in - NNE 3.5 mph - N/A   Clear
6:55 PM 71.6 °F 68.0 °F 88% 30.10 in - NE 3.5 mph - N/A   Unknown
7:15 PM 71.6 °F 66.2 °F 83% 30.10 in - NNW 4.6 mph - N/A   Clear
7:35 PM 69.8 °F 68.0 °F 94% 30.10 in - Calm Calm - N/A   Unknown
7:55 PM 69.8 °F 66.2 °F 88% 30.09 in - NNW 3.5 mph - N/A   Unknown
8:15 PM 68.0 °F 66.2 °F 94% 30.09 in - Calm Calm - N/A   Unknown
8:35 PM 68.0 °F 66.2 °F 94% 30.09 in - NNW 3.5 mph - N/A   Unknown
8:55 PM 68.0 °F 66.2 °F 94% 30.09 in - North 4.6 mph - N/A   Unknown
9:15 PM 68.0 °F 66.2 °F 94% 30.09 in - North 4.6 mph - N/A   Unknown
9:35 PM 68.0 °F 66.2 °F 94% 30.09 in - North 4.6 mph - N/A   Unknown
9:55 PM 68.0 °F 66.2 °F 94% 30.09 in - NNW 4.6 mph - N/A   Unknown
10:15 PM 68.0 °F 66.2 °F 94% 30.09 in - North 3.5 mph - N/A   Unknown
10:35 PM 66.2 °F 66.2 °F 100% 30.09 in - North 3.5 mph - N/A   Unknown
10:55 PM 68.0 °F 66.2 °F 94% 30.10 in - NNE 5.8 mph - N/A   Overcast
11:15 PM 68.0 °F 66.2 °F 94% 30.09 in - North 4.6 mph - N/A   Overcast
11:35 PM 68.0 °F 66.2 °F 94% 30.09 in - North 3.5 mph - N/A   Overcast
11:55 PM 68.0 °F 66.2 °F 94% 30.08 in - North 4.6 mph - N/A   Overcast